Satellite: HUBBLE
Catalog number: 20580
Epoch time:      06109.94473380
Element set:    0594
Inclination:      028.4673 deg
RA of node:       069.5588 deg
Eccentricity:    0.0003678
Arg of perigee:   284.9703 deg
Mean anomaly:     075.0487 deg
Mean motion:   15.00011099 rev/day
Decay rate:       6.34e-06 rev/day^2
Epoch rev:           67634
Checksum:              320

Satellite: UARS
Catalog number: 21701
Epoch time:      06110.15375124
Element set:     747
Inclination:      056.9775 deg
RA of node:       342.4915 deg
Eccentricity:    0.0111996
Arg of perigee:   098.1784 deg
Mean anomaly:     263.1983 deg
Mean motion:   15.42982803 rev/day
Decay rate:      8.869e-05 rev/day^2
Epoch rev:           80034
Checksum:              324

Satellite: PO-34
Catalog number: 25520
Epoch time:      06109.98262614
Element set:    0450
Inclination:      028.4591 deg
RA of node:       060.5212 deg
Eccentricity:    0.0005237
Arg of perigee:   326.7224 deg
Mean anomaly:     033.3041 deg
Mean motion:   15.16675318 rev/day
Decay rate:       8.99e-06 rev/day^2
Epoch rev:           41320
Checksum:              275

Satellite: ISS
Catalog number: 25544
Epoch time:      06110.82692130
Element set:     773
Inclination:      051.6391 deg
RA of node:       122.7364 deg
Eccentricity:    0.0009163
Arg of perigee:   131.5764 deg
Mean anomaly:     221.5250 deg
Mean motion:   15.75518847 rev/day
Decay rate:     1.0675e-04 rev/day^2
Epoch rev:           42411
Checksum:              278

Satellite: OO-38
Catalog number: 26063
Epoch time:      06109.82546016
Element set:    0599
Inclination:      100.1865 deg
RA of node:       030.3636 deg
Eccentricity:    0.0036562
Arg of perigee:   272.1224 deg
Mean anomaly:     087.5782 deg
Mean motion:   14.35761378 rev/day
Decay rate:        4.1e-07 rev/day^2
Epoch rev:           32630
Checksum:              295

Satellite: NO-45
Catalog number: 26932
Epoch time:      06109.59500654
Element set:    0296
Inclination:      067.0561 deg
RA of node:       158.2942 deg
Eccentricity:    0.0008686
Arg of perigee:   274.1468 deg
Mean anomaly:     085.8641 deg
Mean motion:   14.29521365 rev/day
Decay rate:      -1.49e-06 rev/day^2
Epoch rev:           23759
Checksum:              335

Satellite: UWE-1
Catalog number: 28892
Epoch time:      06109.71131487
Element set:     428
Inclination:      098.1704 deg
RA of node:       008.8577 deg
Eccentricity:    0.0017539
Arg of perigee:   357.5094 deg
Mean anomaly:     002.6020 deg
Mean motion:   14.59334816 rev/day
Decay rate:       2.45e-06 rev/day^2
Epoch rev:            2544
Checksum:              304

Satellite: CO-58
Catalog number: 28895
Epoch time:      06109.91033438
Element set:     411
Inclination:      098.1698 deg
RA of node:       009.1140 deg
Eccentricity:    0.0017820
Arg of perigee:   357.2181 deg
Mean anomaly:     002.8900 deg
Mean motion:   14.59390103 rev/day
Decay rate:       2.45e-06 rev/day^2
Epoch rev:            2535
Checksum:              289

Satellite: NCUBE2
Catalog number: 28897
Epoch time:      06110.16799218
Element set:      57
Inclination:      098.1696 deg
RA of node:       009.3611 deg
Eccentricity:    0.0017479
Arg of perigee:   357.5195 deg
Mean anomaly:     002.5931 deg
Mean motion:   14.59543977 rev/day
Decay rate:       3.29e-06 rev/day^2
Epoch rev:            1766
Checksum:              338

/EX




----
Via the keps mailing list at AMSAT.ORG courtesy of AMSAT-NA.
To unsubscribe, send "unsubscribe keps" to Majordomo@amsat.org

--- ViaMAIL!/WC v1.60d
 * Origin: Chowdanet (401-724-4410) telnet://chowdanet.com  (1:323/120)